Regional Weather Roundup
Issued by NWS

Home | Current Version | Previous Version | Graphics & Text | Print | Product List | Glossary Off
Versions: 1 2 3 4 5 6 7 8 9 10 11 12 13 14 15 16 17 18 19 20 21 22 23 24 25 26 27 28 29 30 31 32 33 34 35 36 37 38 39 40 41 42 43 44 45 46 47 48 49 50

000
ASUS43 KMKX 110610
RWRWI

WISCONSIN REGIONAL WEATHER ROUNDUP
NATIONAL WEATHER SERVICE MILWAUKEE/SULLIVAN WI
1200 AM CST MON DEC 11 2017

NOTE: "FAIR" INDICATES FEW OR NO CLOUDS BELOW 12,000 FEET WITH NO
SIGNIFICANT WEATHER AND/OR OBSTRUCTIONS TO VISIBILITY.

WIZ001-002-006>008-014>016-023>028-110700-
NORTHWEST WISCONSIN

CITY           SKY/WX    TMP DP  RH WIND       PRES   REMARKS
SUPERIOR ARPT  MOCLDY    14  11  89 CALM      29.96F
6HR MIN TEMP:   9; 6HR MAX TEMP:  18;

ASHLAND        CLOUDY    11   6  81 CALM      29.97F
6HR MIN TEMP:   6; 6HR MAX TEMP:  11;

HAYWARD        CLOUDY    11   7  84 CALM      29.93F
6HR MIN TEMP:   8; 6HR MAX TEMP:  16;

SIREN          CLOUDY    19  16  86 SE6       29.93F WCI  11
6HR MIN TEMP:  11; 6HR MAX TEMP:  19;

CUMBERLAND     CLOUDY    14  10  85 CALM      29.93F
RICE LAKE      CLOUDY    15  13  93 CALM      29.96F
6HR MIN TEMP:  10; 6HR MAX TEMP:  18;

CHETEK           N/A     12  10  92 MISG      29.95F
6HR MIN TEMP:   9; 6HR MAX TEMP:  18;

LADYSMITH      CLOUDY    15  12  90 CALM      29.97F
6HR MIN TEMP:  11; 6HR MAX TEMP:  20;

EAU CLAIRE     CLOUDY    19  16  88 CALM      29.96F
6HR MIN TEMP:  16; 6HR MAX TEMP:  22;

MENOMONIE      CLOUDY    20  18  92 CALM      29.98S
6HR MIN TEMP:  18; 6HR MAX TEMP:  26;

NEW RICHMOND   CLOUDY    22  21  96 S6        29.94F WCI  15
6HR MIN TEMP:  16; 6HR MAX TEMP:  23;

OSCEOLA        CLOUDY    24  21  90 S7        29.97F WCI  15
6HR MIN TEMP:  14; 6HR MAX TEMP:  24;

$$

WIZ003>005-009-010-017-018-110700-
NORTH CENTRAL WISCONSIN

CITY           SKY/WX    TMP DP  RH WIND       PRES   REMARKS
MANITOWISH WTR CLOUDY     3   1  92 CALM      29.91F
6HR MIN TEMP:   2; 6HR MAX TEMP:  16;

ARBOR VITAE    CLOUDY    11   9  89 CALM      29.92F
6HR MIN TEMP:   9; 6HR MAX TEMP:  19;

WOODRUFF       CLOUDY    11   9  89 CALM      29.92F
6HR MIN TEMP:   9; 6HR MAX TEMP:  19;

RHINELANDER    CLOUDY     8   5  87 CALM      29.94F
6HR MIN TEMP:   6; 6HR MAX TEMP:  18; 6HR PCP: TRACE;

EAGLE RIVER    CLOUDY    14  10  83 CALM      29.93F
6HR MIN TEMP:  13; 6HR MAX TEMP:  17;

LAND O LAKES   CLOUDY    15  10  83 CALM      29.94F
6HR MIN TEMP:  14; 6HR MAX TEMP:  16;

PHILLIPS       CLOUDY   N/A N/A N/A CALM      29.94F
TOMAHAWK       CLOUDY     5   3  89 CALM      29.95F
6HR MIN TEMP:   5; 6HR MAX TEMP:  19;

MEDFORD        CLOUDY    13  10  89 SE6       29.93F WCI   4
6HR MIN TEMP:  11; 6HR MAX TEMP:  20;

MERRILL        CLOUDY    11   9  89 CALM      29.98F
6HR MIN TEMP:  10; 6HR MAX TEMP:  21;

$$

WIZ029-030-035-036-043>047-110700-
CENTRAL WISCONSIN

CITY           SKY/WX    TMP DP  RH WIND       PRES   REMARKS
WAUSAU         CLOUDY    18  12  77 S3        29.98F
6HR MIN TEMP:  18; 6HR MAX TEMP:  22;

MOSINEE        CLOUDY    18  12  79 CALM      29.99F
MARSHFIELD     CLOUDY    18  13  80 CALM      29.97F
6HR MIN TEMP:  16; 6HR MAX TEMP:  22;

STEVENS POINT  CLOUDY    17  13  86 CALM      30.01S
6HR MIN TEMP:  16; 6HR MAX TEMP:  22;

WAUPACA        CLOUDY    25  15  66 CALM      30.02F
6HR MIN TEMP:  25; 6HR MAX TEMP:  28;

WAUTOMA        CLOUDY    16  10  79 CALM      30.03F
6HR MIN TEMP:  16; 6HR MAX TEMP:  25;

WISC RAPIDS    CLOUDY    16  12  84 CALM      30.02S
6HR MIN TEMP:  15; 6HR MAX TEMP:  24;

CAMP DOUGLAS   CLOUDY    22  18  86 CALM      30.01F
6HR MIN TEMP:  22; 6HR MAX TEMP:  26;

$$

WIZ011>013-019>022-031-037>040-048>050-110700-
NORTHEAST WISCONSIN

CITY           SKY/WX    TMP DP  RH WIND       PRES   REMARKS
ANTIGO         CLOUDY    15  11  84 CALM      29.96F
6HR MIN TEMP:  15; 6HR MAX TEMP:  20;

SHAWANO        CLOUDY    23  16  73 CALM      30.04R
6HR MIN TEMP:  21; 6HR MAX TEMP:  26;

OCONTO         CLOUDY    13   8  81 CALM      30.05R
6HR MIN TEMP:  10; 6HR MAX TEMP:  24;

STURGEON BAY   PTCLDY    15   8  73 N5        30.04S WCI   8
6HR MIN TEMP:  15; 6HR MAX TEMP:  23; 6HR PCP: TRACE;

GREEN BAY      CLOUDY    22  14  71 NE5       30.04R WCI  16
6HR MIN TEMP:  20; 6HR MAX TEMP:  26;

MANITOWOC      CLOUDY    15  11  83 CALM      30.05S
6HR MIN TEMP:  15; 6HR MAX TEMP:  25;

APPLETON       CLOUDY    25  12  58 CALM      30.01S
CLINTONVILLE   CLOUDY    23  18  80 CALM      30.03S
OSHKOSH        CLOUDY    24  17  74 CALM      30.02F
6HR MIN TEMP:  24; 6HR MAX TEMP:  26;

$$

WIZ032>034-041-042-053>061-110700-
SOUTHWEST WISCONSIN

CITY           SKY/WX    TMP DP  RH WIND       PRES   REMARKS
LA CROSSE      CLOUDY    27  20  75 S6        30.01F WCI  20
6HR MIN TEMP:  27; 6HR MAX TEMP:  29;

SPARTA         MOCLDY    21  19  93 CALM      30.03F
6HR MIN TEMP:  20; 6HR MAX TEMP:  26;

VIROQUA        CLOUDY    23  20  89 S3        29.99F
6HR MIN TEMP:  23; 6HR MAX TEMP:  25;

BOSCOBEL       CLOUDY    23  18  81 CALM      30.05F
6HR MIN TEMP:  22; 6HR MAX TEMP:  29;

PRAIRIE DU CHI CLOUDY    22  19  86 CALM      30.04S
6HR MIN TEMP:  21; 6HR MAX TEMP:  28;

PLATTEVILLE    CLOUDY    19  18  97 SE3       30.04R
6HR MIN TEMP:  19; 6HR MAX TEMP:  28;

$$

WIZ056-057-062-063-064-067-068-110700-
SOUTH CENTRAL WISCONSIN

CITY           SKY/WX    TMP DP  RH WIND       PRES   REMARKS
REEDSBURG      CLOUDY    24  17  74 CALM      30.03S
6HR MIN TEMP:  24; 6HR MAX TEMP:  26;

BARABOO/DELLS  CLOUDY    23  18  80 CALM      30.02F
6HR MIN TEMP:  23; 6HR MAX TEMP:  27;

LONE ROCK      PTCLDY    20  18  92 NE3       30.04F
6HR MIN TEMP:  19; 6HR MAX TEMP:  28;

MINERAL POINT  CLOUDY    27  23  86 CALM      30.02S
MADISON        CLOUDY    24  18  77 CALM      30.03F
6HR MIN TEMP:  24; 6HR MAX TEMP:  27;

MIDDLETON      PTCLDY    19  16  88 CALM      30.03S
6HR MIN TEMP:  19; 6HR MAX TEMP:  29;

WATERTOWN      CLOUDY    23  16  74 CALM      30.03F
6HR MIN TEMP:  23; 6HR MAX TEMP:  27;

MONROE         CLOUDY    23  19  86 CALM      30.02F
JANESVILLE     CLOUDY    25  19  80 CALM      30.05S
$$

WIZ051-052-058>065-066-070>072-110700-
SOUTHEAST WISCONSIN

CITY           SKY/WX    TMP DP  RH WIND       PRES   REMARKS
MILWAUKEE      MOCLDY    27  15  61 W3        30.04F
6HR MIN TEMP:  27; 6HR MAX TEMP:  28;

WAUKESHA       MOCLDY    23  14  68 CALM      30.04F
MILWAUKEE/TIMM CLOUDY    25  12  58 W3        30.05F
RACINE         CLEAR     25  15  66 CALM      30.07F
6HR MIN TEMP:  25; 6HR MAX TEMP:  28;

BURLINGTON     CLOUDY    31  29  90 CALM      30.04F
6HR MIN TEMP:  31; 6HR MAX TEMP:  35;

KENOSHA        CLOUDY    25  17  72 W3        30.05F
6HR MIN TEMP:  25; 6HR MAX TEMP:  28;

FOND DU LAC    CLOUDY    25  14  63 W3        30.03F
6HR MIN TEMP:  25; 6HR MAX TEMP:  26; 6HR PCP: TRACE;

SHEBOYGAN      CLOUDY    23  19  85 CALM      30.03S
6HR MIN TEMP:  23; 6HR MAX TEMP:  25;

WEST BEND      CLOUDY    23  18  80 W3        30.03F
JUNEAU         CLOUDY    24  16  71 CALM      30.04F
6HR MIN TEMP:  23; 6HR MAX TEMP:  25;

$$

LSZ147-162-110700-
LAKE SUPERIOR

STATION/POSITION TIME  TEMP    WIND        PRES    WAVE
                       AIR SEA DIR/SP/G            HT/PER
                 (UTC) (F)     (DEG/KT/KT) (MB)    (FT/S)
DEVILS ISLAND    0600   22     190/  8/  9 1016.0R
SAXON HARBOR     0530   14                 1014.6F
$$

LMZ867-665-643>646-110700-
LAKE MICHIGAN

STATION/POSITION TIME  TEMP    WIND        PRES    WAVE
                       AIR SEA DIR/SP/G            HT/PER
                 (UTC) (F)     (DEG/KT/KT) (MB)    (FT/S)
NORTHPORT PIER   0540



USA.gov is the U.S. government's official web portal to all federal, state and local government web resources and services.